Theta_e
341 343 343 343 340 337 338 339 338 337 339 339 339 339 339 338 338 338 338 336 337 339 339 337 337 336 335 334 333 333 332 331 331 331 331 332 332 332 333 335 335 335 335 335 335 335 334 334 332 332 333 333 334 335 334 334 333 333 333 332 331 331 331 331 331 331 330 331 333 333 333 332 333 333 333 333 333 333 332 332 332 331 331 332 331
338 341 342 342 339 334 336 338 338 338 339 339 339 339 339 337 337 338 338 336 337 338 337 336 334 333 333 332 331 330 329 330 329 330 331 332 333 332 333 334 334 334 334 335 335 335 333 334 333 333 333 332 333 334 334 334 332 332 332 331 330 331 331 330 330 331 331 332 332 332 331 330 331 331 330 331 332 332 332 332 332 331 331 331 331
339 340 342 342 337 332 334 337 337 338 339 339 338 339 339 339 337 338 338 339 338 337 336 335 334 333 332 331 330 330 331 331 330 328 329 331 332 332 332 332 333 333 333 334 335 335 334 334 333 334 334 333 332 333 333 333 332 331 330 330 330 330 330 329 330 333 333 331 330 330 330 330 331 330 330 331 330 330 331 330 330 330 329 329 329
340 339 341 341 337 331 333 336 337 339 339 338 338 338 339 339 338 338 339 339 338 335 335 335 335 335 333 332 331 331 331 330 330 329 328 328 330 331 331 332 331 331 331 331 332 334 333 333 333 333 334 334 332 332 332 332 332 331 330 331 330 327 328 331 333 334 333 332 330 329 330 331 331 332 331 331 329 329 330 329 328 328 328 328 328
340 339 339 341 340 333 331 333 334 337 338 337 338 339 339 339 338 338 339 338 337 334 335 336 335 335 333 332 331 328 328 328 329 329 328 327 327 329 329 330 330 330 329 329 330 331 331 330 330 331 332 333 333 332 331 331 331 330 331 331 330 328 329 332 333 333 332 332 331 329 330 331 330 331 331 330 329 328 328 327 328 328 328 328 328
339 339 338 340 341 337 332 332 332 334 336 336 338 339 339 339 338 337 338 336 335 333 334 335 334 334 334 331 328 327 327 327 327 327 327 326 325 326 327 328 329 329 329 328 328 328 328 327 327 328 329 330 331 332 331 331 331 330 331 332 331 330 332 333 332 332 333 333 331 330 330 329 329 330 330 329 329 328 327 327 327 328 328 327 327
339 339 337 339 342 339 333 331 330 331 334 335 337 339 339 339 337 337 337 335 334 332 332 334 334 333 332 329 327 328 328 327 326 326 326 325 324 325 326 327 327 328 328 327 326 325 327 328 328 327 327 327 328 329 330 332 331 330 330 331 331 331 332 332 331 332 332 332 332 331 330 329 329 330 329 328 328 328 327 326 326 327 326 326 326
338 339 338 339 342 341 336 334 332 330 332 334 336 338 338 338 337 337 335 333 333 330 331 334 334 332 331 329 329 329 328 327 327 326 325 324 324 324 326 327 326 326 327 327 326 326 327 328 328 328 327 326 326 327 328 330 331 331 331 330 330 331 332 329 329 331 331 331 332 331 329 328 329 330 329 328 328 328 326 326 326 325 325 324 323
335 338 339 339 343 343 340 338 335 332 331 332 334 336 335 334 334 333 330 330 331 329 331 334 333 332 331 329 329 328 327 326 325 324 324 324 326 326 326 327 327 327 327 326 326 326 327 327 327 327 327 326 326 326 327 328 329 330 331 331 331 331 331 330 329 331 330 329 331 331 330 329 328 329 329 328 328 327 324 324 325 324 323 322 322
335 336 337 339 342 343 342 340 338 335 332 330 332 333 331 330 330 329 327 329 331 330 331 333 332 332 331 329 328 326 325 325 324 324 324 324 326 326 326 326 326 326 326 326 326 326 326 326 327 327 327 326 326 326 326 327 328 329 329 331 332 331 331 332 332 331 328 329 330 330 329 329 328 329 328 328 328 327 325 324 325 324 322 321 320
336 334 335 339 341 342 342 340 338 336 331 328 329 330 331 331 330 329 327 330 333 332 331 331 332 332 331 329 328 326 326 325 324 324 324 324 324 325 326 326 326 326 326 326 327 326 326 326 326 326 326 326 326 326 326 326 326 327 328 329 330 330 331 331 331 330 329 330 330 329 329 328 328 328 327 326 327 328 326 324 324 323 322 321 319
334 333 333 337 340 339 337 332 330 331 329 327 328 331 333 333 332 331 331 331 333 333 332 332 332 331 330 330 329 328 327 325 324 324 324 324 324 324 324 324 325 325 326 326 327 326 325 325 324 325 325 325 325 324 325 325 325 326 327 327 328 329 330 330 331 331 330 330 329 328 328 327 326 326 326 326 326 326 326 323 322 321 320 319 317
333 332 333 337 337 333 330 328 326 327 327 328 329 331 332 332 332 332 332 332 333 333 332 332 332 330 330 330 329 328 326 324 323 323 323 323 324 324 323 323 324 325 326 326 325 324 325 325 325 324 324 324 323 323 323 323 324 325 326 326 326 327 327 329 330 330 329 328 327 326 326 325 324 324 325 325 325 324 324 322 321 319 318 316 315
331 331 332 336 331 327 327 327 326 326 325 326 327 328 330 330 332 333 333 333 333 333 332 332 332 331 330 330 329 328 325 323 323 322 323 323 322 323 322 322 324 325 326 325 323 323 323 324 323 322 322 323 323 324 322 322 322 323 324 324 325 325 326 327 327 327 326 325 324 323 322 321 320 321 321 322 322 322 321 320 319 318 317 317 315
332 333 334 333 329 328 329 327 327 327 327 327 327 329 331 330 330 333 333 333 334 333 334 334 333 331 331 331 329 328 326 323 323 323 324 322 322 322 322 323 325 325 324 323 321 320 321 321 320 321 322 322 323 322 322 322 320 321 322 322 322 323 324 324 325 325 323 321 320 318 317 316 316 316 316 318 318 319 319 318 318 317 316 317 316
334 335 334 331 329 328 328 328 328 328 329 329 328 329 330 328 327 330 333 334 335 335 335 335 333 331 332 331 330 329 326 324 323 324 324 323 322 323 322 323 324 324 323 321 319 318 319 319 319 320 322 322 322 321 321 320 318 318 319 319 319 320 320 321 321 321 320 318 317 316 315 316 315 315 315 316 316 317 317 316 316 316 316 315 315
335 334 332 330 328 327 328 329 328 329 330 329 327 327 327 326 327 330 333 333 335 335 334 333 333 332 331 330 330 329 327 325 325 325 324 323 322 322 322 323 323 323 321 319 318 318 317 317 317 319 320 320 320 320 319 318 318 318 318 318 318 317 317 317 317 318 317 317 317 316 316 317 317 317 316 316 316 315 315 316 316 316 316 316 316
333 334 331 329 328 327 328 328 328 329 329 328 327 327 328 329 330 331 331 332 333 333 333 332 332 331 331 330 330 329 328 327 325 324 324 323 321 321 321 322 322 321 320 319 318 317 316 315 315 316 317 317 317 317 317 317 316 316 316 315 316 315 316 316 317 317 317 318 319 318 319 319 318 318 318 317 316 316 315 316 316 317 317 317 316
331 331 330 330 330 328 328 328 328 328 328 328 328 327 328 329 330 330 330 330 330 331 331 332 331 331 330 330 329 329 328 326 324 323 324 323 321 319 320 321 321 320 319 318 317 316 315 314 314 315 315 316 316 316 316 315 315 315 314 313 314 314 315 315 315 316 317 319 319 319 318 318 318 318 318 318 317 316 315 315 316 317 317 317 317
330 329 328 329 329 329 329 329 328 327 327 328 328 328 328 328 329 329 328 327 327 328 331 332 332 331 330 330 329 329 327 324 323 324 324 322 320 319 320 320 320 319 319 317 316 315 315 314 314 314 314 314 315 315 315 315 314 314 313 313 314 314 314 315 315 315 316 318 318 318 318 318 317 317 317 317 317 316 316 315 315 316 317 317 317
327 327 326 326 328 328 327 328 328 327 327 328 328 329 328 328 329 329 328 327 326 327 329 330 330 330 330 330 329 327 325 321 321 322 323 321 320 319 319 320 319 318 318 317 316 315 315 315 314 313 313 314 315 315 315 315 315 314 315 314 314 314 314 315 315 316 316 316 316 317 317 318 317 316 315 315 315 315 315 314 315 316 317 317 317
325 325 324 325 327 327 327 328 328 328 327 328 328 329 329 329 329 330 330 329 328 328 328 329 329 329 329 329 328 327 325 320 319 321 322 321 319 319 319 319 319 318 317 317 316 316 315 316 315 314 313 313 314 315 315 315 315 315 315 316 315 314 313 314 315 316 316 316 316 316 316 317 316 316 316 314 314 314 314 313 314 315 316 316 316
325 325 324 325 327 326 326 328 328 328 328 328 328 329 329 329 329 330 330 330 330 329 329 329 329 329 329 329 328 327 326 323 320 320 323 322 320 319 318 318 319 318 317 317 316 316 316 316 316 315 314 314 314 315 316 315 315 315 316 317 316 315 315 315 315 314 315 315 315 315 315 316 315 315 315 315 314 314 313 313 313 314 316 316 316
326 326 326 327 328 327 327 327 328 328 328 328 328 328 329 329 329 330 330 330 330 330 330 330 330 330 329 329 329 327 327 326 323 321 322 322 320 319 317 317 318 317 317 317 316 316 316 316 316 316 315 315 315 316 316 315 314 314 315 316 316 315 315 316 315 314 314 314 315 315 314 314 315 315 314 314 313 313 313 313 312 313 314 315 315
325 326 326 326 327 328 327 327 327 328 328 328 328 328 328 328 329 328 329 329 329 329 330 330 329 329 329 329 329 328 327 327 325 323 323 323 321 320 318 318 318 317 317 318 316 315 316 315 315 316 316 316 316 317 316 316 316 316 315 316 316 316 316 316 316 315 315 315 316 316 315 315 315 316 315 314 314 314 313 313 312 312 313 314 314
324 325 324 324 325 326 327 327 327 327 327 327 327 328 328 328 328 328 328 328 328 328 329 329 329 328 328 328 328 328 327 327 326 325 324 324 323 322 319 318 318 318 317 318 317 316 316 315 315 315 316 316 316 316 316 317 317 318 317 317 317 317 317 317 317 316 316 316 317 317 316 316 316 316 316 315 314 314 314 313 313 312 312 313 314
322 322 322 322 323 324 326 326 326 326 326 326 326 327 327 327 328 328 328 328 328 328 328 328 328 328 328 327 327 327 327 326 326 325 325 324 324 324 322 319 318 319 318 318 317 317 316 315 315 315 315 316 316 316 316 317 317 318 319 319 319 320 319 319 318 318 317 317 318 318 317 316 316 317 317 316 316 315 315 314 313 312 311 312 313
321 321 321 321 320 322 323 324 324 325 324 325 326 326 326 326 327 327 328 328 327 328 328 328 327 328 328 328 327 327 327 326 326 325 325 325 324 324 324 322 320 320 319 319 318 318 317 317 316 316 316 316 316 317 317 318 318 319 320 320 321 321 321 321 320 320 320 320 319 319 319 319 318 317 318 318 317 316 315 314 314 313 311 311 312
319 319 319 319 318 320 321 321 322 322 322 323 324 324 325 325 326 326 326 327 327 327 327 327 327 327 327 327 327 327 327 326 326 325 325 326 325 324 325 324 322 321 319 319 319 319 319 319 318 318 317 317 318 318 318 319 320 320 322 322 322 322 322 322 322 322 321 321 321 320 320 320 319 318 317 318 318 317 316 316 316 314 313 313 313
318 317 317 316 315 317 317 317 318 318 319 319 320 321 322 322 323 324 325 325 325 326 326 325 326 326 326 327 327 327 327 326 325 324 324 325 325 325 325 325 324 322 320 319 319 319 320 320 320 320 320 321 321 321 321 320 321 322 323 323 323 323 323 323 323 323 323 323 323 322 321 321 320 318 317 317 317 316 316 317 317 316 315 314 314
315 314 314 313 313 313 314 313 314 315 315 316 316 316 317 317 318 319 320 321 322 323 324 324 325 325 325 326 325 325 326 326 325 324 324 324 324 325 325 326 326 325 323 322 321 320 320 320 320 321 322 323 324 324 323 322 321 323 324 324 324 323 323 323 323 323 324 324 323 322 322 322 320 318 317 316 316 315 314 315 315 315 315 314 314
311 310 310 310 310 310 310 310 311 311 312 313 313 314 314 314 315 315 316 317 318 319 320 321 322 323 324 324 324 324 325 325 325 325 325 325 325 325 326 326 326 326 325 325 323 322 322 321 321 322 323 325 325 324 324 322 321 321 322 323 324 323 323 323 322 322 322 323 322 322 322 321 319 318 317 316 315 314 313 313 313 314 313 312 312
308 307 308 308 308 309 309 308 308 308 309 309 310 311 312 313 313 314 314 315 315 316 316 316 317 318 319 321 323 324 324 324 325 324 325 326 326 325 326 326 326 326 325 325 325 324 324 323 322 322 324 325 324 323 324 323 320 319 319 320 321 322 322 322 322 322 322 322 321 320 319 319 319 318 317 317 315 314 313 313 312 312 312 310 310
304 304 305 306 306 307 307 307 306 306 307 307 308 309 310 310 311 312 313 314 314 314 314 315 314 314 315 315 317 319 321 323 324 324 324 325 326 326 326 325 325 325 324 324 325 324 324 324 324 323 324 324 324 323 323 321 318 317 317 317 318 320 322 322 323 322 321 321 320 319 318 318 319 319 317 317 317 315 314 313 312 311 311 310 309
302 302 303 303 304 304 304 305 305 304 305 305 306 306 308 308 309 309 311 312 313 313 313 314 314 314 314 313 314 314 315 318 320 321 322 323 324 325 326 325 325 324 324 323 323 323 324 324 323 323 324 324 323 323 322 321 319 318 317 315 316 319 322 323 323 321 319 319 319 319 318 318 318 318 318 318 318 317 316 314 312 311 310 309 307
303 303 303 303 303 303 303 303 303 303 303 304 304 305 306 307 307 308 308 310 311 311 311 312 312 312 312 313 313 313 313 313 315 316 318 320 321 323 325 325 325 324 323 322 322 322 322 323 323 323 322 322 321 322 321 320 319 318 317 315 316 319 322 322 321 320 318 318 318 317 317 316 317 318 318 317 318 317 315 314 313 311 309 308 307
304 304 304 303 303 303 302 303 303 303 302 302 302 303 304 305 306 306 306 307 309 309 309 309 310 310 310 311 311 312 313 313 313 313 314 316 319 321 323 324 324 323 323 322 322 321 321 321 322 321 321 321 321 321 320 320 319 318 316 317 318 319 320 319 319 318 317 317 317 317 317 316 316 318 317 316 316 316 315 314 312 311 310 308 307
302 302 303 303 303 303 303 303 303 303 302 301 301 301 302 304 304 305 305 306 307 308 307 307 307 307 308 308 310 310 311 312 313 312 313 314 315 317 319 321 323 323 323 322 322 322 321 321 321 321 321 321 321 320 320 320 319 317 316 317 319 318 317 317 317 317 316 316 316 316 316 316 317 317 316 316 316 315 315 314 312 311 311 309 307
301 300 301 301 302 302 302 302 302 302 301 301 301 301 301 302 303 303 304 304 306 307 306 305 305 306 306 306 307 309 310 311 311 312 312 313 313 313 314 316 319 321 322 322 322 322 322 322 322 322 322 321 320 321 321 320 319 317 317 318 318 316 315 315 316 315 316 315 313 313 315 316 316 316 315 315 314 313 313 313 312 311 311 310 307
301 300 300 300 300 301 301 301 301 301 301 301 301 301 301 301 302 302 303 304 304 305 305 305 305 305 304 305 306 307 308 309 310 311 311 312 312 312 312 314 316 317 318 320 321 322 322 322 322 322 322 320 319 320 320 319 318 318 318 317 316 314 315 316 315 314 315 314 312 312 313 314 313 313 313 312 311 311 312 312 311 311 310 310 308
300 299 299 299 300 300 301 300 300 300 300 300 300 301 301 301 301 302 302 303 303 303 304 304 303 303 303 304 305 305 306 307 308 309 309 310 311 311 311 312 313 314 315 317 318 320 320 319 319 320 320 318 318 319 319 319 318 318 317 314 313 314 315 315 315 314 314 313 311 310 310 310 310 310 310 310 309 310 311 311 310 309 309 309 307
299 299 299 299 299 300 300 300 300 300 300 300 300 300 301 301 301 302 302 302 302 302 302 302 302 302 303 304 304 304 304 305 306 306 307 309 310 311 311 311 312 313 313 314 315 316 316 316 316 316 316 317 317 317 317 317 317 316 315 314 313 314 314 315 314 314 314 313 310 308 309 309 307 307 308 308 308 308 309 310 309 307 307 306 305
299 299 299 298 298 299 300 300 300 300 300 300 300 300 300 300 301 301 301 301 301 301 301 301 301 302 302 303 303 303 303 304 305 305 306 307 308 309 310 311 312 312 312 313 314 314 313 313 313 314 314 315 315 314 312 313 313 313 313 314 313 312 313 314 313 313 313 312 309 308 308 307 306 306 306 305 305 306 307 306 305 305 304 302 301
300 299 299 298 299 299 300 300 300 300 300 300 300 300 300 300 300 301 300 300 300 300 300 301 301 301 302 302 302 302 302 303 304 304 305 306 307 308 309 310 311 312 311 312 313 313 312 312 312 312 312 312 312 309 307 307 308 308 309 311 311 311 312 312 311 312 312 309 308 308 308 306 306 305 305 304 304 303 303 302 301 300 299 298 298
299 299 299 299 299 300 300 300 300 300 300 300 300 300 300 300 300 300 300 300 300 300 300 300 300 301 301 301 302 302 302 302 303 303 304 304 305 306 307 308 309 311 311 311 311 312 312 312 311 311 311 311 311 308 304 302 304 304 305 308 310 311 312 311 311 312 311 308 308 308 307 305 304 303 302 301 301 300 299 299 298 297 296 298 299
299 299 299 299 299 300 300 300 300 300 300 300 300 300 300 300 300 299 299 299 300 300 299 300 300 300 300 300 300 301 301 302 302 302 303 303 303 304 305 307 308 309 310 311 310 310 311 310 310 311 310 310 311 309 304 301 302 303 304 308 311 312 312 311 311 310 309 308 307 307 305 303 301 300 299 299 299 298 297 296 294 295 297 299 300
299 299 299 299 300 300 300 300 300 300 299 299 299 299 299 299 299 299 299 299 299 299 299 299 299 299 299 299 300 300 301 301 301 302 302 302 303 303 303 304 306 307 308 310 310 309 309 309 309 309 309 309 310 309 307 304 305 306 308 310 311 311 311 311 310 309 308 307 305 303 301 300 298 298 298 297 296 295 295 294 295 297 299 299 298
299 299 299 299 299 299 299 299 299 299 299 299 299 299 299 299 299 299 298 298 298 298 298 298 298 298 298 299 299 299 300 300 300 301 302 302 302 302 303 303 303 305 307 308 309 309 309 308 308 308 309 309 309 309 308 307 307 308 309 310 311 310 309 309 308 307 306 304 301 300 299 298 297 298 297 296 295 295 296 297 298 299 298 297 296
299 298 299 299 299 299 299 299 299 299 299 299 299 299 299 299 299 298 298 298 298 298 297 297 297 298 298 298 298 299 299 300 300 300 301 301 302 302 303 303 304 305 306 307 309 310 309 309 310 310 310 310 309 309 309 308 306 306 307 309 310 310 308 306 306 306 304 300 298 298 298 298 298 298 297 297 298 298 298 298 299 298 298 297 296
298 298 299 299 299 299 299 299 299 299 299 299 299 299 299 298 298 298 298 297 297 297 297 297 297 297 297 297 297 298 298 299 299 300 300 301 301 301 301 302 302 304 305 306 308 309 309 309 310 309 309 309 309 309 308 308 307 306 306 307 308 307 306 305 304 305 303 299 298 298 299 299 299 298 298 299 299 298 298 298 297 296 297 296 295
298 298 299 299 299 299 299 299 299 299 299 299 298 298 298 297 297 297 296 296 296 296 296 296 297 297 297 297 297 297 297 298 298 299 299 300 301 301 301 301 301 301 303 305 305 306 308 309 308 307 306 306 306 306 306 306 306 306 306 305 306 306 305 304 303 303 301 299 299 300 300 300 300 300 299 299 299 298 298 297 296 295 295 295 294
Wind_Speed
11 15 17 18 17 16 14 14 14 14 13 15 14 13 14 16 15 14 16 15 14 14 13 12 12 11 11 10 9 8 6 6 5 4 3 3 3 4 4 5 6 7 6 6 5 4 5 7 6 6 7 8 8 7 7 6 6 6 5 6 8 7 6 10 11 7 6 5 3 3 3 2 3 3 3 2 2 2 2 3 3 4 5 6 7
11 13 16 18 18 16 14 11 14 15 14 16 17 14 16 18 16 15 15 15 14 14 13 13 12 12 11 10 10 9 8 7 6 5 4 4 4 3 4 4 5 5 6 6 6 4 5 7 7 7 6 6 7 7 7 7 6 6 6 6 7 7 8 10 9 5 4 5 3 2 2 2 2 2 3 3 2 1 1 1 1 2 5 6 7
11 12 14 18 20 17 13 11 14 16 16 18 17 16 17 17 16 15 15 15 14 14 14 13 12 12 11 10 10 10 9 7 7 7 6 5 4 4 3 4 4 4 4 5 6 6 6 7 7 7 7 7 7 8 8 8 7 8 9 8 6 6 8 9 7 4 3 4 4 2 2 2 1 2 4 5 3 1 1 1 1 1 3 7 8
12 12 13 16 21 19 13 12 16 17 17 18 18 18 17 18 19 18 16 17 17 15 13 13 11 10 10 10 10 10 10 9 9 8 7 6 5 4 4 4 3 3 3 3 5 6 6 6 6 6 6 6 6 7 7 7 8 10 11 9 7 8 9 9 7 5 4 2 3 1 3 3 1 2 4 5 3 2 2 2 3 2 1 7 10
12 13 14 14 18 22 17 15 15 16 19 19 19 19 18 18 20 19 18 19 18 14 12 14 12 11 12 11 11 11 11 10 10 9 8 7 6 5 5 4 3 3 3 3 4 5 5 5 5 5 5 5 5 6 6 7 9 11 11 10 9 10 10 7 5 5 4 2 3 1 2 2 1 4 5 3 2 4 3 1 3 1 2 7 11
12 13 13 13 16 23 22 17 13 14 20 20 17 19 19 18 18 17 18 19 17 13 11 14 13 12 13 12 12 12 11 10 10 9 8 7 7 6 5 4 4 4 3 4 4 4 4 3 3 3 4 4 4 5 5 7 9 10 11 11 11 9 7 6 5 5 3 3 2 3 4 3 4 6 4 2 3 4 3 3 4 4 5 7 10
11 12 13 13 15 20 23 22 20 18 20 18 14 16 18 18 17 17 17 17 17 13 12 14 13 13 13 12 12 12 11 11 10 9 8 7 7 7 6 5 5 4 4 4 4 3 3 3 3 2 3 4 4 4 5 6 6 7 7 8 8 7 5 4 4 3 4 4 4 4 5 7 8 6 3 4 3 1 3 6 6 7 8 8 9
10 12 13 13 15 16 21 26 28 27 25 20 16 17 19 18 17 17 16 16 16 14 14 15 14 14 13 12 12 11 12 12 11 9 8 8 8 7 7 6 5 5 4 3 3 3 3 2 3 3 3 4 4 4 4 5 4 4 4 4 5 5 5 4 4 4 4 5 6 5 4 8 8 5 4 6 4 3 4 6 7 8 10 11 11
10 11 11 12 13 14 19 23 26 27 27 26 20 15 17 16 13 15 14 13 14 15 16 16 15 14 13 12 12 12 13 12 11 10 9 9 8 7 7 7 6 5 4 3 3 3 3 2 3 4 4 4 5 5 5 6 5 5 3 2 3 2 2 2 4 3 0 0 5 5 5 8 8 6 6 6 3 4 5 5 7 8 9 10 10
11 10 8 10 12 13 16 18 18 17 20 22 16 9 17 17 12 13 13 14 17 14 12 13 14 13 11 11 12 13 13 12 11 10 9 9 8 7 7 6 6 5 5 4 3 3 3 3 3 4 5 5 5 5 5 6 6 6 5 4 4 3 3 2 1 4 4 1 2 4 4 4 6 5 5 6 2 2 3 6 7 8 8 8 9
9 7 6 9 11 12 11 10 10 12 15 15 12 14 21 21 18 19 19 20 21 17 13 11 11 11 10 11 13 13 12 11 11 10 9 9 8 7 6 6 6 6 6 5 4 4 4 4 3 4 5 5 5 5 5 6 6 6 6 5 5 4 4 4 4 5 5 2 3 4 3 3 4 3 2 5 4 2 3 6 7 8 9 9 8
8 6 6 9 7 4 6 9 11 16 19 18 17 19 22 22 22 23 22 23 21 21 20 14 11 11 10 11 12 12 12 11 11 10 10 9 8 7 6 6 5 6 6 5 5 5 4 4 3 3 4 5 5 5 5 6 6 7 7 6 6 6 5 5 5 5 5 5 5 5 5 5 5 5 2 5 7 4 4 6 7 7 8 8 8
6 5 6 5 3 11 18 18 16 21 25 22 20 20 23 25 25 24 24 24 23 22 21 16 12 11 12 12 12 12 11 11 10 10 9 8 7 7 6 6 6 6 6 5 5 5 4 4 3 3 5 5 6 6 6 6 7 7 8 7 8 8 7 7 8 7 6 7 6 6 6 5 6 6 4 6 7 6 5 6 7 7 7 8 9
7 7 5 4 11 16 21 24 25 26 26 24 22 22 23 21 19 21 23 24 23 23 20 16 14 13 12 12 12 12 11 11 10 9 8 7 6 7 6 5 6 5 6 6 5 5 5 5 4 5 6 7 7 8 7 7 7 8 9 9 9 9 9 9 9 9 8 8 7 7 7 6 6 6 5 7 8 7 6 6 7 7 5 7 9
7 6 6 11 16 17 19 20 19 20 20 18 18 19 19 15 10 12 19 22 22 20 18 14 13 14 14 12 12 12 11 10 10 9 8 7 6 6 5 5 6 6 6 6 6 6 6 6 6 6 7 8 8 8 8 8 8 9 10 10 10 9 10 10 10 10 9 9 8 7 8 8 7 6 6 6 7 7 6 5 5 5 3 4 6
6 8 12 15 18 19 19 18 16 16 15 14 15 17 19 20 16 11 14 19 18 16 16 14 13 14 14 13 12 11 10 10 9 9 8 7 6 6 5 6 7 7 7 6 7 7 8 8 7 7 8 8 8 8 8 8 8 9 10 10 10 9 10 9 9 10 10 9 9 8 8 9 9 8 8 8 8 7 6 5 4 4 3 3 4
9 11 13 16 18 18 17 15 13 12 12 13 16 17 15 16 16 14 11 13 14 14 14 13 11 12 13 13 12 11 10 9 9 9 9 8 7 6 6 7 8 8 8 7 7 7 8 8 8 8 8 8 8 8 8 9 9 9 9 10 9 9 10 10 9 9 9 9 9 9 10 10 10 10 10 10 8 7 7 4 2 2 2 2 4
10 13 15 15 15 15 13 12 10 10 12 14 13 12 11 8 10 13 10 8 10 10 11 11 10 11 12 12 11 10 10 9 10 10 9 8 7 6 7 8 8 9 9 8 8 8 8 7 7 7 8 8 8 8 8 8 9 9 9 9 9 9 9 9 9 9 9 9 9 10 10 11 11 11 11 11 9 8 7 5 4 4 4 3 4
11 12 12 12 13 13 13 12 11 10 10 11 11 11 10 7 8 12 11 9 8 8 8 8 9 9 10 11 10 10 10 10 11 11 9 9 8 7 7 8 9 9 9 9 9 8 8 7 7 7 8 8 8 8 8 8 8 9 9 9 9 8 9 9 9 8 8 9 10 10 11 10 10 10 10 10 9 8 7 6 6 6 6 7 3
11 11 10 10 11 11 12 12 11 10 7 7 9 12 11 7 6 10 11 10 9 8 8 8 8 8 9 11 11 10 11 12 12 11 10 9 9 8 8 9 10 10 10 10 9 9 8 8 8 8 8 9 9 8 8 8 9 9 9 9 9 9 9 9 8 8 8 9 9 10 10 9 8 9 9 8 8 8 7 7 7 6 6 6 6
10 11 10 10 11 11 12 11 9 8 7 6 6 11 13 9 6 8 10 9 8 8 8 8 7 8 9 11 12 11 12 13 12 11 10 9 9 9 9 10 10 10 10 10 9 9 9 8 8 9 9 9 9 9 9 9 9 9 9 9 9 9 9 9 8 8 8 8 8 8 9 8 7 7 7 6 6 6 5 5 5 5 5 4 4
9 10 9 9 11 13 13 11 9 8 7 6 6 9 12 10 7 8 10 10 8 8 9 8 8 8 9 11 12 12 13 12 11 11 11 10 10 10 10 10 10 10 10 10 10 10 9 9 9 9 9 9 10 9 9 9 9 10 9 9 8 9 9 9 8 8 7 7 7 7 7 6 6 5 3 4 5 3 3 4 4 4 5 3 3
10 10 10 10 12 14 13 13 12 11 9 8 8 9 10 10 9 8 8 9 8 9 10 10 10 10 11 12 12 12 12 12 12 12 12 11 11 11 11 11 10 11 11 10 11 11 10 9 9 9 9 9 10 9 9 9 10 10 9 8 8 8 8 8 7 7 7 6 6 6 6 5 5 4 2 3 4 1 1 4 4 3 4 3 3
10 10 10 11 12 12 12 12 12 11 10 10 10 10 11 10 10 10 9 9 9 8 10 10 10 11 11 12 12 12 12 12 12 12 12 12 12 11 11 11 11 11 11 10 11 11 11 10 10 9 10 9 10 9 9 9 9 9 9 8 8 8 7 7 6 6 7 6 6 6 5 5 5 5 3 3 3 2 1 3 3 2 3 3 3
10 10 10 11 11 11 11 11 10 9 9 10 10 10 10 9 10 11 9 9 9 8 9 10 9 10 10 10 11 11 12 12 12 12 11 11 12 12 12 12 11 11 11 11 11 11 11 11 11 10 11 10 10 10 10 10 9 9 8 8 8 8 7 7 7 7 7 7 7 6 6 6 6 5 5 4 5 4 2 3 3 2 3 4 2
10 10 9 9 9 9 10 11 11 10 9 9 10 10 9 9 9 9 9 8 8 8 9 9 9 9 9 9 10 10 12 13 13 12 11 11 11 12 12 12 12 12 12 11 12 12 12 12 12 11 11 11 11 11 11 11 11 10 10 9 9 8 8 8 7 7 8 7 8 8 8 8 7 7 6 5 5 5 3 4 3 2 2 5 2
10 9 9 9 8 8 9 11 11 12 10 10 11 10 10 10 10 9 9 9 9 9 9 9 10 9 9 9 10 10 11 13 13 11 11 10 10 11 12 12 12 13 13 13 12 12 12 12 12 12 12 12 12 12 12 12 12 11 11 11 10 10 9 9 8 9 9 9 9 9 9 9 9 8 8 7 7 7 5 4 4 3 3 4 3
10 10 10 10 9 8 9 10 11 11 11 11 11 11 10 10 10 9 8 8 8 9 10 9 8 8 8 7 8 9 9 11 11 10 10 10 10 11 12 12 12 13 13 13 13 13 12 12 12 12 13 13 13 13 12 12 13 12 12 12 11 11 10 10 10 10 10 10 10 10 10 11 11 10 10 9 9 9 8 6 6 6 6 5 5
11 11 11 11 10 10 10 10 11 11 11 11 11 11 11 11 10 9 8 7 7 8 9 9 9 8 7 6 6 6 7 9 10 10 10 11 10 11 11 12 12 13 13 13 13 13 13 12 12 12 13 13 14 13 13 14 13 13 13 12 12 12 11 11 11 11 12 12 12 12 12 12 13 13 13 13 12 11 9 8 8 8 8 7 7
11 11 11 11 12 12 13 13 13 12 11 10 10 10 10 10 10 9 9 9 8 8 8 8 8 8 7 6 5 5 6 8 10 10 10 10 10 10 10 12 13 13 13 13 13 13 14 14 13 13 14 14 14 13 15 16 16 14 13 13 12 12 12 12 12 12 13 14 14 14 14 15 15 16 17 17 15 14 12 9 9 9 8 8 8
12 11 11 12 13 14 15 15 15 14 13 12 11 10 9 9 8 8 7 7 7 7 7 7 8 8 7 7 6 4 4 5 6 7 8 8 9 9 9 10 11 12 12 12 13 13 14 14 14 15 15 15 14 14 16 19 19 16 15 13 12 12 12 12 13 13 14 15 15 14 13 13 15 17 18 18 16 14 14 13 12 12 10 9 8
12 12 12 13 14 14 15 16 16 15 15 13 12 11 11 10 9 9 8 8 8 7 7 7 6 7 6 5 5 4 4 4 4 5 5 6 7 7 8 8 9 10 10 11 12 13 13 14 14 15 15 15 15 15 18 21 21 20 18 15 13 13 14 14 15 15 16 16 16 16 13 11 12 14 16 18 18 16 15 16 15 15 14 13 11
11 11 12 13 14 14 16 16 16 16 16 15 14 12 12 10 9 9 8 8 8 8 8 8 7 7 6 4 3 3 3 3 3 4 5 5 6 7 8 8 9 10 10 11 12 13 13 13 14 15 15 14 14 15 17 20 21 21 21 19 15 13 15 16 16 16 17 16 14 15 15 12 11 14 16 16 17 18 17 17 17 16 16 16 15
12 12 12 13 14 15 16 16 16 16 16 15 15 14 12 11 10 9 8 7 8 8 8 8 8 7 7 5 4 3 2 2 3 3 4 5 6 7 7 8 9 10 12 12 11 12 13 14 14 15 15 14 13 15 17 19 19 18 19 20 18 14 13 15 15 15 15 13 9 8 12 12 12 15 17 15 15 16 17 17 17 16 15 16 15
11 12 12 13 15 15 16 16 16 16 16 15 16 15 13 12 11 10 9 8 7 8 9 8 7 7 7 6 5 5 3 2 1 2 3 5 6 7 8 8 9 10 12 11 12 13 14 15 16 16 16 16 15 16 18 19 20 19 19 20 19 14 12 13 16 16 14 13 9 7 10 14 15 16 16 15 14 14 15 16 16 14 11 11 12
8 8 9 10 11 12 13 13 13 15 16 15 16 16 14 13 12 11 10 9 8 9 9 8 7 7 7 6 5 4 3 3 2 1 3 5 6 7 8 9 10 11 12 12 14 15 15 16 17 18 19 19 18 18 19 21 22 22 21 20 17 14 12 12 13 14 12 11 9 7 9 12 14 15 15 14 15 13 12 13 14 13 10 10 13
7 6 6 5 6 7 8 8 9 11 12 13 14 15 14 12 12 12 11 9 8 8 8 7 7 8 8 7 6 6 4 4 4 3 4 4 5 6 8 9 11 12 12 13 15 15 15 16 17 18 19 19 18 19 20 21 22 22 21 19 16 14 14 12 11 11 10 9 8 7 7 7 9 12 13 13 15 14 11 11 13 13 11 10 12
8 7 5 5 5 4 4 4 5 7 9 9 10 11 11 10 9 10 10 9 7 6 7 7 8 8 8 8 8 7 7 6 5 5 4 4 5 6 7 9 10 12 13 14 14 15 15 15 15 16 16 16 16 17 19 20 21 22 22 19 16 15 16 14 12 11 8 7 9 9 7 6 7 10 10 10 13 13 10 10 12 12 11 9 9
8 7 6 6 6 5 5 5 6 6 7 7 7 8 8 8 8 8 9 8 7 7 8 8 8 9 9 9 8 8 8 8 7 7 6 6 7 8 8 9 10 11 13 13 13 13 13 12 12 13 14 15 15 16 17 18 19 20 21 20 17 15 15 14 12 11 8 6 8 10 10 8 7 8 8 9 13 13 9 9 11 11 10 9 8
7 7 6 6 6 6 6 7 7 7 8 8 8 8 7 8 9 9 9 9 8 9 10 10 10 10 10 10 9 8 8 8 9 9 9 9 9 9 10 10 10 12 13 13 13 12 12 11 11 12 14 15 14 15 16 16 17 19 21 21 16 13 13 13 12 11 9 8 7 9 11 9 7 7 9 12 16 13 8 9 11 9 10 10 10
7 6 5 6 6 5 5 6 7 7 8 8 8 9 9 9 9 9 9 10 10 11 11 11 11 12 12 11 10 10 10 10 10 11 12 12 11 11 12 12 12 13 13 13 13 12 11 11 12 13 14 14 14 15 16 17 18 19 21 20 15 11 11 12 12 11 10 9 9 9 11 10 8 8 11 15 16 12 8 9 9 5 6 10 10
5 4 5 6 7 5 6 7 7 7 8 8 9 9 9 9 9 10 10 11 12 12 12 13 13 13 13 12 12 12 12 12 13 13 13 13 13 13 14 14 15 16 15 15 16 16 14 13 14 14 14 14 14 16 18 19 19 18 19 19 17 12 9 9 11 11 10 10 10 11 13 12 10 10 13 16 16 13 11 11 9 5 5 8 7
5 4 6 7 7 6 7 8 7 8 8 9 9 10 9 10 10 10 11 12 12 13 13 14 14 14 14 14 14 15 15 14 14 14 14 15 15 15 15 16 16 17 18 16 16 17 16 14 15 14 12 12 14 17 18 18 18 18 17 19 19 15 10 9 10 10 9 10 11 13 15 13 12 12 12 14 14 12 11 9 8 7 6 5 4
5 5 5 6 6 5 6 6 6 7 7 7 7 8 8 10 10 10 11 12 12 13 13 14 14 15 15 16 16 16 16 16 16 16 16 16 16 16 17 18 18 18 19 18 17 18 18 16 16 16 14 13 14 16 18 18 18 19 17 18 20 17 13 11 9 8 10 12 12 15 17 15 14 13 12 11 11 11 9 7 6 6 5 3 3
5 5 6 6 6 5 5 6 6 6 6 6 6 7 8 10 11 11 12 12 13 13 13 14 15 15 16 17 17 18 18 18 18 18 18 18 18 18 18 19 20 20 20 19 19 19 19 18 18 17 17 15 13 15 18 18 18 19 18 18 18 17 16 14 11 10 14 14 14 17 18 16 14 13 12 11 10 8 7 6 5 4 3 3 3
6 6 6 7 6 5 5 6 7 7 7 7 8 9 10 12 12 12 13 14 14 15 15 15 16 16 16 17 18 19 19 19 19 19 20 20 20 20 20 21 22 22 22 22 22 21 20 20 19 18 19 18 16 16 20 22 20 19 19 19 18 16 16 16 14 15 16 14 14 17 18 16 14 12 10 10 9 8 7 5 5 5 4 3 3
6 7 6 6 6 5 6 7 8 9 9 10 11 11 12 13 14 14 15 15 16 17 17 17 17 17 17 17 18 18 19 19 20 20 21 21 22 22 22 22 22 23 23 23 22 22 22 21 21 20 20 19 17 17 19 22 23 21 20 20 19 17 17 18 17 17 17 16 17 19 17 15 15 13 10 9 8 7 6 5 5 5 4 3 2
6 6 5 5 6 7 8 9 10 11 11 11 12 13 14 15 15 16 16 17 17 17 18 18 19 19 19 19 19 19 19 19 20 20 21 21 22 22 23 24 24 24 25 24 23 24 25 23 22 21 20 19 18 17 18 20 22 23 21 20 20 19 18 19 20 20 20 20 21 19 16 14 13 12 10 8 7 6 6 6 6 5 4 4 4
6 5 5 6 7 8 10 10 11 12 12 13 14 15 15 16 17 17 18 18 18 18 18 19 19 19 19 19 19 19 19 20 20 21 21 22 23 23 23 22 20 18 17 19 21 23 22 18 13 13 15 15 13 13 15 18 22 24 23 22 23 23 20 19 21 23 23 24 22 17 14 13 11 10 9 9 8 8 7 7 6 5 5 4 4
6 5 5 6 7 9 10 11 11 13 14 15 16 17 17 18 18 18 18 17 18 18 18 18 18 18 18 18 18 19 20 21 21 21 21 22 23 25 26 25 24 19 15 12 13 15 17 15 9 7 12 16 14 12 13 14 16 19 19 19 21 22 20 20 23 24 23 23 19 15 12 12 11 10 10 10 9 9 8 7 6 5 4 3 2
6 5 5 6 8 9 10 11 13 14 15 17 18 18 19 18 17 17 16 16 16 16 16 16 16 17 18 18 18 19 19 20 21 21 21 21 22 24 26 27 30 29 23 16 12 10 12 16 15 12 12 15 17 17 15 12 10 11 13 14 15 18 19 20 23 24 22 19 16 13 12 12 11 11 11 10 9 9 8 8 7 6 5 3 2
Wind_Direction
177 174 171 169 152 153 180 178 163 172 183 181 176 173 168 162 157 153 157 167 175 170 166 168 162 154 155 154 150 150 151 147 144 143 135 134 145 158 163 162 163 159 160 164 162 167 151 135 132 138 148 152 150 148 153 166 166 173 190 195 204 210 230 236 227 208 156 137 135 132 111 91 100 94 86 85 96 111 123 135 146 161 170 160 154
178 172 175 174 146 151 191 176 158 173 176 176 178 172 166 164 161 157 164 177 182 173 166 168 162 157 158 154 152 149 149 157 153 145 139 133 137 148 150 149 154 155 156 154 148 151 138 126 131 140 150 155 149 150 154 159 167 180 186 185 194 206 226 236 232 216 171 159 159 138 137 126 94 107 116 91 65 54 84 101 126 169 156 137 135
181 176 183 177 144 150 197 183 166 178 175 176 179 174 164 159 163 164 169 180 181 175 170 165 158 154 154 150 147 142 138 140 136 137 143 136 128 126 130 135 136 139 144 146 140 137 133 128 134 142 148 158 161 161 161 161 166 184 193 184 184 212 231 239 236 225 206 173 151 143 202 185 106 141 124 89 70 18 353 21 30 285 181 136 123
183 186 191 180 149 152 194 190 172 178 182 180 176 176 170 161 168 170 172 178 176 179 172 155 150 146 142 140 133 127 124 124 125 131 136 135 132 124 118 116 115 119 124 126 119 118 123 125 127 132 140 158 168 164 168 172 171 188 201 187 181 215 226 227 226 230 237 157 130 215 215 180 176 183 118 80 98 119 25 18 60 324 211 115 104
187 193 193 187 159 156 181 193 180 184 192 185 173 175 175 167 169 169 173 173 168 181 172 144 145 144 139 137 128 126 131 135 136 135 136 137 136 128 122 115 109 106 105 105 96 97 103 109 122 135 139 153 162 157 165 168 171 193 203 191 198 221 218 209 210 225 242 173 128 179 188 176 196 162 133 80 80 97 81 83 110 108 58 93 104
193 199 193 193 176 159 164 174 183 202 205 194 174 170 172 169 167 162 167 168 164 182 173 145 150 151 148 150 144 143 145 145 143 140 141 138 131 128 123 115 108 100 95 94 84 81 88 95 116 140 148 160 164 155 155 157 170 194 203 198 208 223 215 204 199 198 228 228 177 153 132 134 156 151 139 94 73 65 77 104 109 106 89 109 125
196 202 195 196 191 165 152 160 178 199 207 200 179 169 171 169 166 158 162 165 163 182 179 154 156 159 158 158 152 151 145 139 140 138 135 129 128 130 122 116 113 108 102 89 77 68 73 87 101 121 139 155 162 155 152 157 168 178 187 192 199 208 211 220 223 193 197 206 198 181 134 130 146 150 151 141 120 64 91 92 84 83 82 92 101
205 206 198 196 199 176 157 163 174 181 190 197 187 172 168 165 163 160 162 161 159 181 186 165 161 164 163 160 153 148 140 136 137 133 130 129 134 137 132 128 122 115 111 96 83 75 72 80 88 96 114 129 137 136 136 138 138 138 153 175 178 189 197 214 238 226 204 184 173 191 174 146 154 162 152 139 129 145 135 105 90 82 77 78 78
227 220 205 198 200 184 167 166 169 169 174 185 190 177 158 152 149 148 149 155 167 189 190 169 164 166 162 158 150 141 136 138 138 133 132 134 138 139 137 133 126 121 116 107 97 91 91 85 82 88 90 99 108 108 111 114 112 112 115 135 142 153 156 183 211 184 78 190 155 171 184 161 159 160 151 142 139 154 146 129 121 107 89 84 85
233 228 219 209 201 192 180 168 162 149 145 163 178 159 141 138 132 132 138 158 174 190 198 179 168 165 161 153 143 138 139 140 137 135 137 139 140 140 140 138 136 132 123 118 111 105 109 101 85 88 84 83 91 96 103 103 99 97 92 86 80 76 82 71 81 98 80 4 129 143 169 155 145 151 156 150 161 232 161 143 142 128 106 97 97
221 221 240 227 202 193 180 141 117 96 96 119 118 112 132 145 151 153 157 165 168 171 182 187 175 165 158 147 140 139 142 140 140 142 145 145 144 146 147 146 144 142 136 129 118 114 115 109 96 86 82 79 81 87 96 97 94 91 86 81 73 68 78 82 78 83 91 77 48 72 87 54 75 97 129 137 141 243 185 140 134 124 113 110 106
208 201 226 230 211 172 104 69 48 58 79 103 115 125 142 155 158 158 162 168 170 170 168 169 174 166 151 144 143 142 143 144 146 148 148 148 149 151 152 152 151 149 144 134 122 119 117 115 115 97 82 74 76 82 84 89 92 91 86 82 75 71 76 89 92 80 83 90 64 65 73 49 60 74 78 127 141 188 176 131 130 127 115 114 113
203 199 216 224 97 77 85 92 90 90 102 122 140 148 153 160 160 159 165 167 167 171 166 159 164 163 150 147 145 144 147 149 149 149 148 149 150 152 156 159 159 155 147 134 124 119 113 116 117 95 86 79 80 86 86 92 99 97 93 89 82 77 79 86 89 80 77 84 80 81 86 70 69 81 92 119 136 168 163 134 130 125 120 126 129
201 201 205 107 93 97 103 114 120 123 134 146 151 152 153 159 160 155 160 163 163 167 165 157 159 158 153 151 148 148 152 153 151 150 148 147 150 157 162 161 158 155 146 131 123 119 109 108 103 89 89 90 89 90 89 90 98 100 97 93 88 81 82 85 84 82 78 79 81 81 84 79 77 88 99 112 127 143 142 132 124 119 136 145 140
186 158 113 93 104 111 112 117 123 130 138 140 139 141 140 138 136 145 153 157 161 164 161 160 160 156 155 155 155 153 153 155 153 149 149 150 153 159 161 155 152 149 142 129 121 119 113 110 108 102 101 100 98 97 92 87 90 98 96 91 89 85 86 87 84 83 80 78 81 81 84 80 75 79 73 75 101 118 122 122 118 125 150 139 128
130 104 93 98 106 107 109 113 117 122 122 119 122 129 133 132 134 153 161 156 158 161 161 163 160 155 158 161 159 155 153 155 152 147 150 151 155 159 154 149 144 140 137 128 122 121 119 117 116 113 110 106 103 99 97 94 93 97 96 93 92 89 88 88 85 85 82 80 79 80 87 80 70 72 68 60 66 82 103 109 110 132 139 118 112
113 102 99 103 106 106 109 112 118 125 123 123 127 129 132 135 138 149 161 157 155 158 159 160 158 157 162 163 159 155 154 154 149 147 148 148 152 155 151 148 143 140 139 132 128 124 120 119 118 117 114 110 105 100 99 99 98 97 94 91 91 89 87 86 85 85 83 83 81 79 86 82 73 72 72 72 67 70 91 92 74 95 98 126 141
109 104 105 109 113 117 121 122 123 125 123 124 125 121 122 131 136 140 147 148 149 154 154 156 160 164 166 166 161 155 151 148 144 142 143 146 151 154 154 153 148 146 144 139 136 130 123 121 119 118 117 113 109 105 102 100 98 97 95 92 92 92 90 87 87 87 84 85 82 79 82 79 76 75 73 75 72 70 81 71 55 56 16 7 143
95 95 103 114 126 135 138 134 124 116 114 113 109 102 106 121 129 130 136 141 141 144 144 152 163 168 172 170 160 152 147 145 143 142 145 148 151 158 159 156 154 153 149 145 144 140 135 131 126 126 123 118 115 111 107 104 101 100 98 96 96 96 97 94 92 91 89 89 84 81 83 80 78 79 75 73 69 67 76 75 67 64 33 21 65
103 99 97 102 112 119 123 124 122 115 92 73 85 92 93 104 122 125 136 150 153 147 141 146 157 165 171 168 160 155 149 146 145 146 152 154 155 164 164 158 158 158 155 154 154 151 148 144 139 136 131 126 123 120 116 112 108 107 105 103 102 102 103 100 97 96 95 95 90 84 84 81 79 82 79 76 73 66 67 72 74 75 62 45 50
111 114 113 109 106 105 108 111 108 102 91 81 91 94 96 106 124 124 130 142 154 162 161 159 159 165 172 170 167 162 154 153 152 153 158 160 163 169 166 161 161 162 162 162 162 160 157 154 150 144 138 133 129 126 124 121 116 113 111 111 111 110 107 104 103 104 101 100 96 92 90 83 81 91 94 92 92 87 82 83 84 85 80 66 66
104 111 115 119 121 121 122 120 111 99 99 105 102 96 99 109 128 135 132 132 142 163 175 177 174 176 179 175 171 164 159 163 165 162 165 167 171 173 167 164 164 165 169 169 166 164 163 160 156 149 144 139 136 133 131 128 125 121 120 120 120 117 113 112 113 114 110 108 108 108 106 97 94 104 109 106 111 121 128 115 100 90 93 80 61
100 103 108 115 119 122 125 129 126 118 112 110 107 107 110 120 134 133 125 128 142 160 171 174 173 176 181 180 175 170 168 170 171 172 175 175 176 176 171 169 168 168 173 174 169 168 168 166 163 157 152 148 145 142 138 135 134 132 132 131 129 126 123 124 127 129 129 127 127 127 124 121 124 132 127 101 115 155 84 108 98 75 89 76 43
99 103 111 118 120 123 128 128 122 114 115 118 118 121 126 130 130 122 118 128 138 146 157 164 167 170 178 182 183 184 184 182 179 180 185 183 178 177 176 176 173 172 176 175 173 174 173 170 169 167 164 161 157 152 149 147 145 145 144 142 140 138 138 142 145 146 145 144 146 148 147 149 151 155 159 146 152 180 105 116 131 132 121 90 52
98 102 111 118 121 126 129 125 116 108 111 117 117 120 125 124 120 120 129 136 134 139 151 156 159 163 171 181 186 188 189 188 183 183 189 189 181 180 182 181 179 177 178 178 176 178 177 175 176 177 174 172 169 165 162 158 157 157 155 154 155 155 156 160 162 162 161 162 166 169 167 167 169 169 175 178 170 174 168 147 159 177 155 141 117
85 88 97 101 104 112 118 121 120 114 110 109 108 109 111 111 113 122 132 134 135 145 151 150 154 160 166 174 180 184 186 188 188 188 194 196 190 186 187 188 187 182 181 183 182 181 181 180 182 183 182 181 179 177 174 171 169 168 167 168 168 169 173 175 176 177 179 180 182 184 181 180 182 182 184 182 167 172 171 149 171 241 110 119 163
90 89 89 88 86 89 100 110 115 115 112 110 108 106 107 108 107 111 120 126 133 141 145 148 154 158 163 171 180 188 188 188 192 195 198 199 195 192 193 194 193 188 184 186 187 185 186 186 187 187 187 187 185 185 184 180 178 177 176 178 177 178 183 184 187 191 192 193 194 194 191 190 193 192 188 184 174 175 175 155 177 213 135 122 200
99 96 90 89 89 84 89 101 108 111 112 110 107 104 104 102 98 101 111 121 132 139 139 143 148 149 153 166 179 189 190 189 193 197 200 202 198 195 197 200 200 195 191 192 191 190 190 193 194 193 192 193 192 192 192 189 189 185 183 183 183 185 188 189 194 200 201 202 204 205 203 199 199 197 192 191 186 185 190 187 187 192 186 189 214
102 96 87 84 85 80 78 86 95 102 106 109 110 111 112 109 107 111 115 115 122 131 134 138 141 138 138 148 168 186 190 189 193 198 203 206 204 200 202 205 207 203 199 199 199 196 195 199 201 200 201 201 200 202 200 196 196 193 189 189 189 191 195 197 200 206 209 210 211 211 212 210 205 202 198 195 191 188 191 195 194 196 203 210 216
103 97 90 83 80 77 70 69 73 79 84 89 97 105 109 110 113 121 124 123 122 125 127 129 127 125 129 139 155 178 182 180 187 194 199 202 201 201 206 209 209 208 206 205 205 203 202 204 205 205 207 205 202 206 205 199 198 196 194 195 195 196 202 206 210 215 216 216 218 216 216 216 210 205 204 203 202 202 202 198 193 196 203 209 214
99 92 88 78 72 71 68 65 64 66 69 71 77 84 88 92 100 106 111 114 114 116 117 115 117 122 129 134 139 156 170 169 175 182 188 195 194 195 204 209 209 211 211 209 210 210 208 210 211 211 212 207 204 210 210 203 199 198 196 198 201 204 211 217 220 224 225 224 223 224 226 224 217 211 210 213 217 218 214 209 201 196 199 200 200
95 89 82 74 66 61 58 56 54 53 55 57 60 65 65 67 75 81 89 95 94 98 102 101 105 111 117 127 135 144 158 164 167 173 180 188 192 194 198 205 209 212 211 208 212 215 214 216 218 218 217 212 208 214 218 212 208 206 204 204 208 213 218 224 228 231 234 231 224 226 237 237 222 217 218 222 225 222 217 215 212 207 205 203 199
83 75 69 62 59 56 52 50 47 43 42 41 42 47 48 46 51 59 70 83 86 88 89 88 90 93 94 106 123 138 154 161 167 178 183 185 191 196 198 203 208 211 214 213 213 216 219 220 221 221 223 221 215 218 224 221 216 213 213 213 217 224 226 229 234 236 237 236 226 222 230 230 218 216 218 219 222 221 217 215 215 214 214 213 210
59 57 55 49 47 46 43 43 40 35 33 31 28 30 33 34 38 42 46 55 68 72 70 69 72 75 75 76 79 89 111 141 166 191 202 200 201 201 202 206 205 207 213 216 216 219 222 222 222 223 225 227 222 219 220 220 219 221 226 224 224 232 236 233 235 239 245 251 241 210 208 210 211 216 214 208 208 213 217 217 216 217 220 221 222
46 44 43 40 40 38 35 32 29 26 25 24 21 18 19 23 26 29 32 36 49 60 58 53 53 55 55 53 52 55 56 63 151 201 224 225 219 213 211 212 208 206 209 214 220 224 223 224 225 226 226 228 228 224 222 224 229 234 235 230 229 237 243 241 240 238 242 250 242 204 194 196 198 204 207 201 195 201 213 215 210 207 210 215 216
61 52 43 39 37 36 34 27 22 21 20 15 12 10 10 13 14 14 17 23 34 45 44 37 33 33 32 29 26 26 24 13 356 288 252 245 235 226 221 218 215 214 214 215 222 225 225 224 224 226 229 231 233 233 231 232 237 237 233 230 232 233 232 234 234 226 222 228 226 209 201 197 191 194 197 193 189 191 199 201 195 190 186 189 198
77 78 76 67 46 40 42 34 26 26 22 11 5 4 1 3 6 3 0 7 22 31 28 23 18 14 11 6 0 355 349 342 329 304 279 266 253 239 230 225 224 225 224 223 225 229 231 229 226 227 231 232 234 234 231 232 234 232 228 227 225 220 217 216 214 210 208 210 205 200 201 193 184 188 192 193 194 192 186 183 182 179 175 177 195
67 62 66 67 51 41 51 50 38 32 23 6 358 358 354 349 352 352 346 348 357 0 0 4 3 358 353 349 346 340 333 326 314 304 302 295 276 261 247 234 229 231 232 232 233 233 231 230 230 231 229 227 226 227 228 231 232 227 222 218 213 211 210 206 201 198 193 191 196 198 192 175 175 187 196 206 202 190 180 179 176 173 172 173 192
67 45 28 30 32 23 21 29 26 18 10 356 347 351 346 335 335 338 333 331 332 335 341 344 343 340 337 334 330 324 322 317 307 301 302 293 280 273 264 251 241 239 240 238 235 231 228 227 227 227 225 220 220 225 229 228 224 217 209 204 206 212 207 195 191 187 170 163 184 193 190 185 187 195 202 201 187 175 175 185 180 182 193 192 181
57 39 18 13 17 13 9 12 8 358 352 347 344 346 340 330 329 329 326 326 329 331 330 328 327 325 319 315 311 308 308 305 300 298 295 288 280 274 268 260 252 247 245 242 237 230 224 223 223 222 220 216 216 222 222 211 205 202 196 193 204 220 208 190 187 183 166 150 154 174 188 190 181 181 178 172 171 172 182 191 188 199 214 196 167
42 32 18 8 4 2 1 359 355 349 344 343 343 340 333 328 327 325 325 326 326 323 321 318 316 311 306 301 297 295 296 292 290 290 287 282 277 272 268 263 257 252 249 248 246 236 223 222 227 226 217 209 209 213 207 196 191 194 193 193 203 223 216 195 188 183 172 158 147 158 174 171 155 157 161 162 167 174 173 175 182 198 194 170 153
32 26 22 6 351 349 352 348 345 344 343 343 340 334 329 327 324 322 323 322 319 316 312 307 303 299 295 292 287 285 284 281 280 279 277 275 272 269 267 262 257 255 252 246 239 232 225 220 221 219 208 199 203 206 200 193 192 194 197 197 201 219 227 199 187 190 181 157 148 159 167 162 151 153 160 165 172 176 171 174 188 201 187 176 168
15 16 19 359 342 343 346 341 341 343 342 340 336 332 330 328 323 322 323 321 317 313 308 302 299 295 290 286 281 278 276 272 270 269 268 268 266 264 263 259 254 254 252 245 234 230 227 217 212 214 204 190 197 203 198 195 196 197 199 200 202 214 223 197 190 201 181 150 155 170 169 162 159 161 165 171 179 186 189 192 201 208 210 212 207
7 10 9 348 336 341 340 334 337 338 333 330 329 327 327 323 318 318 319 316 314 312 308 304 301 296 291 287 283 279 275 270 267 264 262 262 260 258 257 255 252 250 247 242 237 235 231 218 212 218 212 194 191 199 201 202 203 201 201 201 203 208 208 197 197 194 164 154 171 180 171 166 170 170 170 176 183 190 197 198 199 208 215 209 204
1 5 360 344 336 337 336 338 342 338 332 330 326 321 319 319 318 317 316 314 313 313 310 308 306 302 299 296 291 286 280 274 269 264 260 257 255 253 253 251 249 248 245 241 237 235 232 225 217 215 212 200 187 189 197 201 202 203 203 201 202 204 200 195 190 174 166 172 183 180 172 170 174 172 172 176 178 179 184 189 189 186 179 181 212
358 360 353 342 337 339 347 352 347 339 336 332 327 322 319 319 320 319 315 312 310 308 306 305 304 302 301 299 295 290 285 279 272 266 261 258 254 251 249 248 246 246 246 245 240 236 235 233 226 217 211 204 188 181 191 196 196 198 200 197 198 199 195 189 180 172 173 178 176 172 170 168 165 163 164 168 171 170 171 169 160 152 159 193 224
354 356 351 344 345 349 351 347 340 335 334 331 327 323 320 318 318 317 314 311 307 305 303 302 300 299 298 297 294 291 289 286 280 272 265 260 256 252 249 247 246 245 244 244 244 241 237 234 231 225 217 208 191 178 183 191 191 190 192 191 190 189 185 179 173 169 171 172 169 167 167 165 160 157 159 161 163 163 160 156 157 158 165 191 196
351 353 346 340 344 344 340 337 334 333 331 329 326 322 320 318 315 314 312 308 305 302 300 298 297 296 294 293 292 290 287 284 280 275 270 265 259 255 251 248 246 245 243 242 243 244 240 238 237 231 216 203 195 186 182 186 188 186 185 186 184 181 178 174 171 169 168 167 166 163 160 158 156 156 158 162 164 166 172 179 182 180 179 188 198
346 340 330 332 339 340 337 335 334 332 330 328 324 321 320 317 314 312 309 305 302 300 297 295 294 293 291 291 290 289 286 282 276 273 271 268 263 259 257 256 254 253 250 245 243 243 243 242 241 230 211 198 194 187 179 184 192 191 186 187 188 182 176 175 178 177 170 162 157 155 155 157 160 163 169 175 177 179 184 184 183 192 197 193 202
331 322 325 336 340 338 336 334 333 332 329 326 323 320 318 316 313 311 308 304 301 300 297 295 293 292 291 291 290 289 290 289 286 279 273 271 269 264 260 262 265 269 271 262 248 245 246 240 220 183 184 184 176 164 162 174 192 193 186 186 187 180 173 178 183 179 169 159 155 157 163 167 171 177 185 188 184 181 182 177 178 201 208 188 190
318 314 323 335 335 334 334 333 332 330 327 323 321 318 317 316 314 311 309 305 302 300 297 296 295 293 292 291 288 287 287 288 291 289 282 276 275 270 260 254 255 260 266 268 268 265 249 230 211 188 178 171 160 157 158 163 178 188 185 187 184 176 178 187 185 174 163 159 160 165 171 176 182 188 192 189 183 182 183 180 179 191 194 186 205